Tracking 27122 objects as of 26-Mar-2023
HD Live streaming from Space Station
objects crossing your sky now

SL-8 R/B

Track SL-8 R/B now!
10-day predictions


NORAD ID: 10918
Int'l Code: 1978-053B
Perigee: 959.0 km
Apogee: 1,001.8 km
Inclination: 82.9 °
Period: 104.5 minutes
Semi major axis: 7351 km
RCS: 5.0251 m2 (large)
Launch date: May 23, 1978
Source: Commonwealth of Independent States (former USSR) (CIS)
Launch site: PLESETSK MISSILE AND SPACE COMPLEX (PKMTR)

Note: This is a ROCKET BODY
Your satellite tracking list
Your tracking list is empty




NASA's NSSDC Master Catalog

Two Line Element Set (TLE):
1 10918U 78053B   23084.43970917  .00000191  00000-0  17663-3 0  9996
2 10918  82.9187 194.5958 0029153 227.8182 206.0197 13.77362820252943
Source of the keplerian elements: AFSPC